JAL4 RJTT-LFPG

Flight info

Callsign JAL4
Flight time N/A
Altitude 33000
Route INUBO Y808 PUTER/N0500F340 A590 PUGAL/N0494F350 A590 POWAL DCT HEDMI DCT NATES DCT ROCET/N0497F370 DCT IDROD DCT CIVED DCT BRW DCT AGMIF DCT 82N060W/M085F390 80N040W 75N020W 69N010W DCT PEMOS/N0488F410 DCT AKOMU DCT VAMEB UL612 MID/N0503F290 Y803 SFD UM605 BIBAX
Aircraft A359/H-SDE2E3GHIJ3J4J5LM1ORWXY/LB1D1

Departure

Time 2026-05-03 22:18
Airport Tokyo Haneda International Airport (RJTT)

Arrival

Time N/A
Airport Charles de Gaulle International Airport (LFPG)
Time Latitude Longitude Altitude Speed Heading
2026-05-03 21:06 35.55235 139.78062 28 ft 0 kts 152°
2026-05-03 21:53 35.55236 139.78061 29 ft 1 kts 152°
2026-05-03 21:54 35.55251 139.78052 28 ft 3 kts 154°
2026-05-03 21:54 35.55269 139.78041 27 ft 3 kts 153°
2026-05-03 21:54 35.55284 139.78031 29 ft 3 kts 168°
2026-05-03 21:54 35.55297 139.78032 28 ft 3 kts 232°
2026-05-03 21:55 35.55308 139.78053 28 ft 3 kts 242°
2026-05-03 21:55 35.55314 139.78067 29 ft 2 kts 240°
2026-05-03 21:55 35.55323 139.78086 27 ft 3 kts 240°
2026-05-03 21:55 35.55334 139.78107 27 ft 2 kts 240°
2026-05-03 21:56 35.55337 139.78115 29 ft 2 kts 240°
2026-05-03 21:58 35.55331 139.78103 27 ft 7 kts 238°
2026-05-03 21:58 35.55296 139.78028 28 ft 12 kts 239°
2026-05-03 21:59 35.55248 139.77929 29 ft 15 kts 239°
2026-05-03 21:59 35.55247 139.77826 29 ft 13 kts 309°
2026-05-03 21:59 35.55327 139.77766 29 ft 15 kts 330°
2026-05-03 21:59 35.55426 139.77695 29 ft 19 kts 329°
2026-05-03 22:00 35.55550 139.77607 29 ft 13 kts 332°
2026-05-03 22:00 35.55639 139.77546 29 ft 17 kts 329°
2026-05-03 22:00 35.55755 139.77461 29 ft 22 kts 329°
2026-05-03 22:00 35.55900 139.77362 29 ft 23 kts 346°
2026-05-03 22:01 35.56010 139.77467 29 ft 23 kts 62°
2026-05-03 22:01 35.56077 139.77607 29 ft 15 kts 58°
2026-05-03 22:01 35.56136 139.77730 29 ft 18 kts 59°
2026-05-03 22:01 35.56205 139.77871 29 ft 16 kts 58°
2026-05-03 22:02 35.56230 139.77924 29 ft 0 kts 59°
2026-05-03 22:10 35.56241 139.77948 29 ft 8 kts 59°
2026-05-03 22:11 35.56277 139.78022 29 ft 11 kts 59°
2026-05-03 22:11 35.56323 139.78119 29 ft 18 kts 59°
2026-05-03 22:11 35.56404 139.78289 29 ft 25 kts 59°
2026-05-03 22:11 35.56490 139.78471 29 ft 22 kts 60°
2026-05-03 22:12 35.56531 139.78560 29 ft 0 kts 60°
2026-05-03 22:16 35.56533 139.78563 29 ft 4 kts 60°
2026-05-03 22:16 35.56560 139.78652 30 ft 11 kts 98°
2026-05-03 22:16 35.56493 139.78730 30 ft 15 kts 149°
2026-05-03 22:17 35.56404 139.78790 30 ft 15 kts 150°
2026-05-03 22:17 35.56198 139.78938 30 ft 67 kts 150°
2026-05-03 22:17 35.55558 139.79389 30 ft 144 kts 150°
2026-05-03 22:17 35.54531 139.80152 266 ft 192 kts 156°
2026-05-03 22:18 35.53514 139.81337 971 ft 220 kts 126°
2026-05-03 22:18 35.53209 139.83289 1705 ft 250 kts 91°
2026-05-03 22:18 35.53855 139.85380 1895 ft 279 kts 54°
2026-05-03 22:18 35.55413 139.86885 2074 ft 294 kts 18°
2026-05-03 22:19 35.57396 139.87460 2541 ft 294 kts
2026-05-03 22:19 35.59317 139.88071 3015 ft 305 kts 19°